Location: Camaret
(48.2753°N, 4.5961°W)
Time: 01:01:02
(UTC+00:00)

CZ-4C R/B - Pass Details

Date: 29 October 2020
Orbit: 624 x 1378 km, 63.4° (Epoch: 26 November)

Event Time Altitude Azimuth Distance (km) Brightness Sun altitude
Rises 20:26:28 0° 318° (NW) 3,764 6.4 -34.0°
Reaches altitude 10° 20:28:55 10° 320° (NW) 2,912 5.6 -34.4°
Enters shadow 20:34:50 66° 336° (NNW) 1,294 3.1 -35.3°
